RH
24 18 14 14 15 17 19 19 18 19 19 18 18 18 18 19 20 21 23 24 26 28 26 26 32 36 45 45 39 34 30 24 18 15 14 14 14 14 12 12 12 14 19
16 16 19 21 21 23 22 22 23 22 20 21 23 25 24 25 24 25 25 26 29 32 35 33 30 33 38 39 38 44 42 37 32 26 21 17 16 16 16 16 14 12 11
20 23 24 23 23 22 21 21 22 23 24 29 35 34 31 30 29 32 36 37 36 33 32 32 36 38 38 41 41 37 42 48 45 40 36 31 25 23 22 21 21 19 16
22 25 26 24 22 22 23 24 26 26 30 35 38 38 36 34 33 37 42 42 40 41 41 38 35 32 30 31 34 38 40 42 45 46 41 36 36 32 28 24 21 20 20
23 26 26 26 29 32 34 37 34 33 36 36 34 35 36 36 41 50 56 53 49 50 50 47 45 44 42 38 36 36 32 29 31 34 36 35 36 35 34 31 25 20 20
21 24 25 26 27 28 26 26 26 29 30 32 34 42 44 46 52 57 55 50 45 40 36 33 30 28 26 26 28 27 27 27 24 20 23 29 31 30 30 32 28 25 19
20 22 22 22 23 24 25 25 26 29 33 34 40 48 54 60 60 56 50 43 34 29 22 14 10 8 7 7 7 7 12 17 18 18 19 20 17 18 22 26 30 28 26
22 22 22 23 25 27 28 26 26 29 36 40 47 54 60 54 37 29 23 21 18 15 14 13 14 14 11 11 12 7 4 4 8 10 12 12 12 13 15 16 17 19 24
22 22 24 25 24 27 27 26 31 41 43 45 54 60 51 34 26 26 23 20 19 21 25 29 34 32 28 20 12 6 2 2 2 2 4 7 10 10 9 8 12 15 15
23 24 25 26 27 30 32 42 46 45 48 52 59 55 46 35 38 34 31 29 29 33 48 48 35 33 23 17 10 3 4 4 4 4 4 3 2 2 4 5 6 8 12
24 26 29 30 33 45 54 50 49 50 52 59 64 55 53 58 71 72 69 57 52 57 74 55 41 25 16 6 5 6 6 6 6 7 7 7 6 5 3 2 2 3 5
32 32 35 49 64 62 83 64 58 51 53 60 63 62 70 83 75 57 53 66 77 90 90 54 23 8 5 6 8 8 8 8 8 7 7 7 7 6 6 4 3 3 2
34 46 70 69 69 69 82 62 64 59 60 67 70 68 81 94 76 40 40 46 61 76 79 30 9 6 7 8 10 9 9 10 10 8 7 9 11 10 7 6 5 4 4
62 80 76 73 66 67 63 60 61 68 68 69 61 76 96 94 73 75 70 76 72 74 38 11 8 10 10 11 12 14 17 18 19 18 18 15 17 22 20 13 10 7 5
92 71 71 69 72 68 60 65 67 66 66 66 74 82 100 100 100 100 96 90 66 27 16 9 9 11 15 18 23 23 23 24 24 22 22 20 18 18 19 20 18 15 12
75 64 65 72 70 70 80 74 68 62 61 71 94 99 100 94 93 97 91 32 21 13 10 9 10 16 18 23 26 28 28 27 27 25 25 24 21 20 19 18 18 17 15
66 71 79 73 74 87 83 74 84 92 100 100 100 99 97 100 100 96 39 18 11 11 11 12 19 25 28 28 25 23 23 24 25 26 25 24 22 21 20 16 15 16 15
83 87 79 79 86 85 82 86 95 99 95 90 87 92 98 100 80 41 15 11 12 14 16 16 27 33 31 24 23 26 28 27 24 24 27 29 28 25 19 17 18 21 19
77 77 79 78 84 99 99 100 96 82 80 89 99 100 100 77 37 13 11 14 19 20 20 29 30 34 30 28 29 26 24 19 18 19 22 24 24 22 21 22 22 22 21
76 75 78 82 75 72 97 99 98 80 92 99 99 98 77 30 13 11 15 21 23 25 34 38 36 37 35 34 27 22 18 16 20 23 25 29 37 36 35 34 33 25 26
75 76 80 82 94 94 84 100 90 100 100 100 100 50 23 12 12 18 24 26 25 36 43 44 46 44 40 32 25 19 15 20 43 45 51 58 52 53 56 58 55 47 46
66 64 91 86 95 100 100 100 100 100 100 96 40 17 12 13 22 26 29 36 47 48 51 49 51 45 36 28 22 18 21 42 62 56 55 60 53 58 52 30 17 18 29
83 82 92 100 87 100 100 100 100 100 82 34 14 13 16 22 28 32 37 56 59 57 52 51 50 41 32 26 20 26 43 56 57 53 51 65 51 31 19 17 17 17 17
84 100 96 100 100 100 100 100 97 62 17 12 13 18 20 28 34 39 52 58 59 60 64 60 48 38 30 25 25 36 65 68 60 46 54 26 18 19 20 21 20 18 14
100 87 100 100 100 100 100 92 40 19 16 14 18 24 27 33 38 50 59 60 62 66 67 59 47 36 28 25 28 48 69 66 63 47 51 17 22 23 19 23 30 34 34
70 80 100 100 100 100 86 47 26 21 17 17 20 27 34 38 47 60 64 67 73 75 68 56 44 31 28 32 34 53 80 75 64 60 43 19 29 33 34 48 46 77 88
Wind_Speed
14 11 11 15 18 22 25 28 31 32 33 34 35 36 37 38 40 41 42 43 43 43 44 46 45 43 40 40 41 41 41 42 42 43 43 42 40 37 36 36 34 34 33
9 13 16 20 24 26 28 29 30 32 34 36 37 38 39 41 43 45 45 44 44 44 44 46 48 50 48 45 45 46 46 47 46 47 48 48 47 45 42 41 40 39 37
13 17 21 24 26 28 29 31 33 35 36 36 37 39 41 43 46 47 45 43 42 44 46 47 46 48 51 53 52 54 53 54 55 55 55 54 52 51 51 49 47 47 45
17 20 24 28 30 32 33 34 36 38 39 39 41 42 44 46 48 48 46 46 47 47 46 46 47 49 50 50 53 57 58 59 59 61 64 64 62 60 58 58 56 54 52
22 25 29 33 35 37 39 40 42 43 43 43 45 46 48 50 48 44 43 45 47 49 51 54 56 58 58 59 60 59 60 62 63 65 68 72 72 71 68 65 65 63 59
27 31 34 37 40 41 44 46 47 47 48 48 48 48 49 49 45 43 45 48 51 55 58 61 64 66 68 71 72 73 72 72 72 70 71 72 74 76 76 74 75 72 69
33 36 39 42 44 47 48 50 50 50 49 49 48 50 48 44 44 47 50 52 55 58 61 64 66 68 68 70 75 83 87 86 84 83 82 82 80 80 80 80 78 78 79
38 42 45 48 49 50 52 53 53 51 50 49 50 50 44 42 45 48 52 54 56 59 64 70 75 79 82 85 96 99 89 95 97 96 96 95 92 90 89 87 86 85 82
44 47 50 51 54 54 56 57 54 52 51 51 52 47 47 48 51 55 56 57 60 63 65 72 77 81 87 91 101 102 90 88 91 95 99 101 102 101 99 97 95 93 91
47 49 53 55 56 57 57 54 53 53 53 55 51 49 51 55 58 61 65 67 70 73 77 80 83 90 94 99 94 82 77 79 78 82 85 89 94 98 102 101 103 101 99
51 53 56 57 56 56 54 53 53 54 55 53 53 54 57 60 64 69 73 75 79 81 83 83 88 94 96 85 75 71 68 67 66 68 71 74 78 83 89 94 95 100 105
56 57 57 57 57 55 55 56 56 58 56 55 57 61 63 64 71 71 72 77 82 86 86 87 92 88 79 72 62 57 53 51 52 56 60 61 63 67 72 79 84 91 97
58 59 57 58 59 55 58 59 60 59 59 62 63 64 66 70 76 72 72 75 79 85 85 85 82 73 65 56 49 46 42 42 44 46 47 47 49 52 55 60 66 73 82
58 58 59 61 58 57 60 62 61 61 63 65 66 68 70 76 77 76 79 80 79 84 83 73 65 58 51 45 41 40 40 39 40 42 43 45 45 46 46 49 51 56 61
57 61 59 60 59 62 62 60 63 66 67 68 70 72 74 79 84 78 81 86 86 77 73 64 53 45 39 37 38 40 40 41 41 42 43 44 46 47 48 47 47 48 49
58 59 58 59 61 63 62 65 68 70 73 74 79 82 85 88 89 79 82 72 74 71 64 54 44 39 34 35 36 40 42 44 45 46 46 47 47 49 49 50 50 51 50
57 56 59 62 62 62 66 67 70 74 83 85 87 90 90 81 79 74 71 68 67 65 57 44 37 35 34 36 38 40 41 41 43 45 46 47 47 47 47 47 48 49 51
56 59 61 61 61 65 70 72 74 81 85 84 84 81 72 75 78 71 66 65 64 58 51 41 37 36 36 38 37 39 41 43 44 46 45 46 46 45 45 46 46 45 46
59 62 62 63 65 70 74 76 82 85 82 84 76 75 76 76 68 63 64 63 56 51 47 41 38 37 36 37 37 40 40 41 41 41 40 40 40 40 41 40 41 42 42
60 62 65 68 71 71 73 79 84 82 84 78 75 78 76 65 60 62 61 56 49 45 42 40 38 36 36 37 38 38 38 39 36 35 34 33 32 34 35 36 38 40 42
62 65 69 73 77 75 76 81 81 78 79 75 78 72 64 60 60 59 54 48 45 41 39 38 35 35 37 38 37 36 35 31 29 30 30 34 33 35 36 37 39 41 45
66 68 72 75 81 77 77 78 76 74 76 75 64 60 59 58 58 52 47 42 40 39 36 34 33 34 34 34 33 32 30 26 26 32 32 35 30 31 31 34 35 37 41
67 69 71 78 79 85 84 75 72 73 67 61 56 55 56 55 50 45 41 38 39 37 35 32 32 34 31 30 30 27 26 26 28 30 28 30 30 30 31 34 36 37 39
71 74 76 78 83 79 72 73 69 61 53 52 53 53 54 51 45 40 37 37 38 36 35 34 34 33 30 28 27 23 22 24 28 30 26 26 27 29 31 35 36 39 40
72 79 76 79 74 71 74 62 52 51 52 49 49 49 49 46 40 38 36 37 37 35 34 33 34 33 29 27 24 21 22 23 28 30 25 25 27 28 29 28 30 32 32
76 77 78 77 71 72 57 53 51 50 52 50 48 46 45 42 37 36 35 35 33 32 32 34 34 32 29 26 25 20 20 23 26 29 25 24 23 22 23 18 21 27 30
Wind_Direction
312 317 324 325 325 324 324 321 319 319 317 314 311 309 307 307 305 303 300 296 291 286 282 281 283 282 277 275 274 272 267 263 263 262 260 259 256 254 252 252 252 254 254
327 319 324 329 326 326 321 317 316 314 312 310 310 310 306 304 304 303 299 295 292 287 280 275 273 275 276 270 268 271 271 269 265 259 257 257 258 257 254 256 255 253 252
318 323 322 320 320 315 314 313 314 314 312 311 311 310 309 307 305 303 302 297 289 285 283 281 277 273 270 270 268 264 263 267 268 265 261 258 256 257 257 254 254 255 253
313 313 313 313 312 312 313 315 316 314 313 313 313 310 308 308 309 307 304 300 298 296 291 286 280 277 274 271 267 265 264 262 262 265 266 265 261 257 254 255 252 250 252
308 307 309 310 309 311 314 314 313 313 313 311 309 309 309 311 309 305 301 301 299 297 294 291 290 288 285 281 276 271 266 263 260 259 261 262 262 261 257 253 253 251 249
310 310 310 311 314 314 313 314 313 312 311 309 309 311 311 310 307 305 304 302 302 299 298 296 295 292 289 286 282 278 273 269 266 261 258 257 259 260 260 258 253 250 248
312 313 314 315 316 315 315 313 313 313 309 309 310 312 310 308 308 306 304 302 302 302 303 302 298 297 298 298 298 292 277 271 268 264 262 258 254 254 256 257 255 253 249
314 316 317 317 316 314 315 315 313 311 309 309 311 310 306 304 304 304 303 302 302 303 303 305 304 306 306 305 305 303 288 273 266 263 262 260 257 255 252 250 253 254 251
316 317 316 314 313 314 314 313 313 311 309 309 309 305 302 301 300 303 302 301 302 301 300 303 303 299 299 301 306 303 290 278 271 267 264 261 258 255 254 253 248 246 250
314 312 310 311 313 314 313 313 311 310 310 311 309 304 301 302 301 302 304 304 304 304 302 303 301 301 303 306 308 291 282 277 273 268 264 261 258 256 252 251 250 247 243
310 308 310 312 313 312 312 311 309 309 309 307 304 302 304 306 309 308 307 304 302 302 302 304 307 309 310 306 296 285 278 275 272 268 264 262 260 259 255 251 248 248 245
309 310 311 312 312 309 309 308 308 309 307 303 302 305 308 309 310 310 313 311 310 304 303 309 313 312 305 295 290 286 281 276 270 266 265 265 262 260 258 255 252 249 246
309 310 311 311 310 307 305 305 306 305 305 303 303 305 305 307 309 312 313 314 313 310 308 315 311 302 297 291 290 286 279 275 271 270 270 267 264 263 261 258 255 252 248
309 309 310 309 308 306 306 306 304 302 304 305 304 304 302 304 307 310 315 312 310 309 313 312 299 293 290 290 286 284 282 277 275 274 271 267 266 263 262 258 256 254 251
310 307 306 306 306 306 306 304 304 304 305 305 306 306 304 304 304 313 309 307 310 316 319 311 292 288 287 283 283 283 282 281 279 276 274 271 266 266 264 261 255 253 250
303 305 305 305 304 303 304 305 306 306 305 305 305 306 305 303 304 310 310 312 313 310 310 303 295 291 287 284 283 281 280 280 279 278 277 274 271 268 265 262 258 252 249
305 304 304 304 304 303 305 307 307 307 311 312 309 308 307 303 302 311 313 309 302 301 301 299 294 291 289 287 285 283 283 283 282 280 276 272 270 269 265 261 259 255 249
303 304 302 303 305 305 305 303 305 310 311 312 312 312 301 306 319 317 308 301 299 300 300 299 295 296 294 291 288 288 288 288 286 282 277 272 271 268 263 261 257 253 249
302 303 304 304 302 302 303 306 307 311 312 312 309 304 302 316 317 307 302 298 299 299 298 300 297 297 295 291 292 293 293 293 290 285 280 276 272 268 264 259 255 251 247
304 304 304 302 302 302 303 305 309 310 313 311 307 308 316 317 308 301 300 300 300 299 299 300 301 301 299 298 297 297 298 295 291 289 286 280 275 270 266 262 258 253 249
302 302 303 304 304 303 305 305 307 310 310 308 310 318 316 311 305 303 302 303 301 301 302 301 302 303 303 301 299 299 297 293 288 287 286 282 275 269 263 261 257 253 251
304 302 303 308 306 304 301 302 305 308 304 313 322 316 310 307 306 306 306 304 303 303 302 301 303 302 301 297 297 298 294 292 293 296 293 287 277 272 269 266 261 256 252
304 307 307 306 306 306 305 308 303 305 318 321 315 310 310 308 307 307 304 307 308 309 308 305 307 306 304 301 301 294 291 294 297 297 296 290 283 277 272 269 266 261 256
307 308 305 305 305 308 307 302 312 322 322 319 314 312 311 310 307 306 306 309 312 312 311 312 313 312 307 304 303 294 291 299 304 307 303 294 284 281 278 274 269 263 257
301 305 304 304 307 303 301 317 322 326 327 320 315 312 312 310 308 306 310 310 312 314 314 314 314 313 310 309 305 293 297 307 312 313 309 299 296 293 291 281 267 255 252
298 299 301 305 300 306 321 319 321 324 323 318 314 312 312 311 309 309 310 313 315 317 318 319 319 316 315 312 308 297 305 312 315 315 310 304 304 307 304 287 261 247 247